Temp
-7 -7 -7 -8 -8 -8 -8 -8 -8 -8 -8 -8 -8 -8 -8 -8 -8 -8 -8 -8 -8 -7 -6 -7 -7 -8 -7 -5 -4 -4 -3 -2 -3 -2 0 3 5 6 8 9 10 9 10 11 11 12 13 11 11 11 12 11 12 13
-7 -7 -7 -8 -8 -8 -8 -8 -8 -8 -8 -8 -8 -8 -8 -8 -8 -8 -8 -8 -8 -8 -7 -7 -7 -8 -7 -7 -6 -5 -4 -4 -3 -2 -1 1 1 5 8 8 10 10 10 11 12 12 10 11 11 11 11 9 10 12
-7 -7 -8 -8 -8 -8 -8 -8 -8 -8 -8 -8 -8 -8 -8 -8 -8 -8 -8 -8 -8 -8 -7 -6 -6 -5 -5 -4 -5 -6 -5 -5 -3 -3 -3 -1 0 2 6 8 10 10 11 11 11 8 8 10 10 9 9 8 9 10
-6 -7 -7 -8 -8 -8 -8 -8 -8 -8 -8 -8 -8 -8 -8 -8 -8 -8 -8 -8 -8 -8 -7 -6 -5 -5 -6 -6 -3 -4 -4 -4 -3 -4 -3 -1 -1 0 3 4 6 4 8 10 8 6 8 9 10 9 7 7 7 9
-7 -7 -8 -8 -8 -8 -8 -8 -8 -8 -8 -8 -8 -8 -8 -8 -8 -8 -8 -8 -8 -8 -7 -6 -5 -5 -5 -4 -4 -3 -4 -4 -4 -3 -2 -1 -0 0 2 3 4 5 6 6 8 7 6 7 7 5 6 6 6 6
-7 -8 -8 -8 -8 -8 -8 -8 -8 -8 -8 -8 -8 -8 -8 -8 -8 -8 -7 -8 -7 -7 -8 -7 -5 -5 -4 -3 -3 -3 -3 -5 -5 -3 -1 -1 -0 -0 1 1 2 2 5 4 5 5 6 6 5 5 5 5 4 4
-7 -7 -8 -8 -8 -8 -8 -8 -8 -7 -7 -7 -8 -8 -8 -7 -8 -8 -7 -7 -7 -7 -7 -5 -4 -4 -4 -3 -3 -4 -3 -3 -3 -3 -2 -1 -0 0 0 1 1 2 3 4 5 5 6 5 5 5 5 4 4 4
-6 -7 -7 -7 -7 -7 -7 -7 -7 -7 -7 -7 -7 -7 -6 -6 -7 -7 -7 -7 -7 -7 -6 -5 -3 -3 -3 -3 -3 -3 -3 -3 -3 -3 -2 -1 -0 -1 -0 -0 1 2 3 4 4 4 4 5 4 5 5 3 3 3
-6 -6 -6 -7 -7 -7 -7 -7 -6 -6 -6 -6 -6 -6 -6 -6 -7 -7 -6 -6 -6 -6 -6 -4 -4 -3 -2 -3 -3 -3 -2 -2 -3 -2 -1 -1 -1 -1 -1 -0 0 1 3 3 3 3 4 4 5 4 3 2 2 3
-6 -6 -6 -6 -6 -6 -6 -6 -6 -6 -6 -6 -6 -6 -6 -6 -6 -6 -5 -6 -5 -5 -4 -3 -3 -3 -2 -1 -0 -1 -1 -1 -1 -1 -1 -1 -2 -1 -1 -1 -0 1 1 1 2 2 2 3 3 3 3 2 1 2
-5 -5 -5 -5 -5 -5 -5 -6 -6 -5 -5 -5 -5 -6 -5 -5 -5 -5 -5 -5 -5 -4 -4 -3 -2 -2 -2 -1 -0 -0 -1 -1 -1 -1 -1 -2 -2 -2 -2 -1 -1 -0 0 0 1 1 1 1 0 -0 0 0 0 0
-4 -5 -5 -5 -5 -5 -5 -4 -4 -4 -4 -4 -4 -4 -4 -5 -5 -5 -4 -4 -3 -3 -3 -2 -2 -2 -2 -1 -1 -1 0 -1 -0 -1 -1 -2 -1 -1 -1 -1 -1 -1 -1 -0 -0 -0 -0 0 -1 -1 -1 -1 0 -0
-4 -4 -4 -4 -5 -4 -5 -5 -3 -3 -3 -4 -4 -4 -5 -4 -4 -4 -4 -4 -3 -3 -2 -2 -2 -2 -1 -1 0 -1 0 -1 -0 -1 -1 -1 -1 -1 -1 -1 -1 -1 -2 -2 -1 0 1 -1 -1 -1 -1 -0 -0 -0
-4 -4 -4 -4 -4 -4 -4 -4 -3 -3 -3 -3 -4 -4 -4 -4 -4 -4 -3 -3 -2 -2 -2 -2 -2 -2 -0 -0 -0 1 1 -1 -1 -1 -1 -1 -1 -1 -1 -1 -1 -1 -1 -1 -1 -1 -1 -1 -0 -0 0 -1 1 1
-3 -3 -4 -3 -3 -3 -4 -3 -4 -3 -3 -4 -4 -4 -4 -4 -3 -3 -3 -2 -2 -2 -2 -2 -1 -1 -0 0 0 -0 -0 -2 -1 -1 -1 -1 -1 -1 -1 -2 -2 -2 -2 -1 -1 -1 -1 -1 -1 -1 1 0 -0 -0
-3 -3 -3 -3 -3 -3 -3 -3 -3 -3 -3 -4 -4 -4 -4 -4 -3 -3 -3 -2 -2 -1 -1 -1 -1 -1 -2 -2 -2 -2 -2 -2 -1 -1 -1 -1 -1 -1 -1 -1 -1 -1 -1 -1 -2 -1 -1 -1 -1 -0 -1 -0 -0 -0
-2 -2 -2 -3 -3 -3 -3 -3 -3 -5 -5 -4 -4 -4 -4 -4 -4 -3 -3 -3 -2 -1 -0 -1 -2 -2 -2 -2 -2 -2 -2 -2 -2 -1 -1 -1 -1 -1 -1 -1 -1 -1 -1 -1 -1 -1 -1 -1 -1 -0 -1 -1 -1 -1
-2 -2 -2 -2 -2 -2 -2 -3 -5 -4 -4 -4 -4 -4 -4 -4 -4 -4 -3 -3 -3 -2 -1 -2 -2 -2 -2 -2 -3 -2 -2 -2 -2 -2 -1 -1 -1 -1 -1 -1 -1 -2 -1 -1 -1 -1 -1 -1 -1 -1 -1 -1 -1 -1
-2 -2 -2 -1 -1 -1 -2 -3 -4 -4 -4 -5 -4 -4 -4 -4 -4 -3 -3 -3 -3 -2 -1 -2 -3 -3 -3 -3 -2 -2 -2 -2 -1 -1 -1 -1 -1 -1 -1 -1 -1 -1 -2 -1 -1 -1 -2 -2 -2 -2 -2 -1 -1 -2
-2 -2 -2 -1 -1 -1 -2 -3 -3 -5 -5 -5 -4 -4 -4 -3 -3 -3 -2 -2 -2 -2 -3 -3 -3 -3 -3 -3 -3 -2 -1 -1 -1 -1 -1 -2 -2 -1 -1 -2 -2 -2 -2 -2 -2 -2 -2 -2 -3 -3 -3 -3 -2 -2
-2 -1 -2 -2 -2 -2 -2 -3 -5 -3 -5 -4 -4 -4 -3 -4 -4 -3 -3 -3 -3 -3 -3 -2 -3 -2 -2 -2 -2 -2 -1 -1 -1 -1 -2 -2 -2 -2 -3 -3 -3 -3 -3 -3 -3 -3 -3 -3 -2 -3 -3 -3 -2 -2
-2 -1 -1 -2 -2 -3 -3 -2 -2 -2 -4 -4 -4 -3 -3 -3 -3 -3 -3 -2 -3 -3 -3 -3 -3 -3 -3 -3 -3 -2 -2 -2 -2 -2 -2 -2 -2 -2 -2 -3 -3 -3 -3 -3 -3 -3 -4 -3 -2 -3 -3 -3 -3 -4
-1 -1 -1 -2 -2 -2 -2 -1 -1 -2 -3 -3 -3 -3 -3 -3 -3 -3 -3 -3 -3 -3 -3 -3 -3 -3 -4 -4 -3 -3 -3 -4 -3 -3 -3 -4 -4 -4 -4 -4 -4 -4 -5 -5 -5 -5 -6 -5 -5 -3 -5 -4 -5 -5
-1 -1 -1 -2 -2 -2 -1 -1 -2 -3 -2 -2 -2 -2 -2 -2 -3 -3 -3 -4 -4 -4 -4 -4 -4 -4 -4 -4 -3 -2 -2 -3 -4 -3 -4 -4 -3 -4 -4 -5 -5 -5 -6 -6 -6 -7 -7 -7 -6 -6 -7 -6 -7 -7
0 -0 -1 -1 -1 -1 -2 -2 -2 -2 -2 -2 -2 -2 -2 -2 -3 -3 -4 -4 -4 -4 -4 -4 -4 -5 -4 -4 -3 -2 -2 -2 -3 -4 -3 -4 -5 -4 -4 -4 -5 -5 -5 -5 -6 -6 -6 -7 -7 -8 -8 -7 -8 -8
-1 -1 -1 -1 -1 -1 -1 -1 -1 -1 -1 -1 -2 -1 -1 -1 -2 -3 -4 -4 -5 -5 -5 -5 -5 -5 -5 -4 -3 -3 -3 -3 -4 -5 -4 -4 -4 -4 -4 -5 -5 -6 -5 -5 -6 -6 -6 -6 -7 -8 -9 -9 -9 -9
-1 -1 -1 -1 -1 -1 -1 -1 -1 -1 -1 -1 -1 -1 -2 -2 -3 -4 -4 -4 -4 -4 -5 -5 -5 -5 -6 -6 -6 -4 -4 -4 -5 -5 -7 -7 -7 -5 -5 -6 -6 -4 -6 -6 -6 -7 -6 -6 -7 -7 -8 -8 -10 -11
-0 -0 -0 -1 -1 -1 -1 -1 -1 -1 -1 -1 -2 -2 -3 -3 -4 -4 -4 -4 -4 -4 -4 -4 -5 -5 -6 -6 -7 -7 -7 -5 -6 -5 -6 -7 -8 -9 -7 -7 -7 -7 -7 -7 -7 -7 -7 -7 -8 -8 -8 -9 -9 -10
-0 -0 -0 -0 -0 -1 -1 -1 -1 -2 -1 -2 -2 -2 -3 -3 -3 -4 -4 -5 -5 -5 -5 -5 -7 -7 -7 -8 -8 -8 -9 -6 -6 -6 -7 -9 -10 -9 -8 -8 -8 -8 -8 -9 -9 -8 -8 -9 -9 -9 -10 -11 -13 -14
-0 0 -0 -0 -1 -1 -1 -2 -2 -1 -1 -1 -1 -2 -2 -4 -5 -5 -5 -5 -5 -6 -7 -7 -7 -8 -7 -7 -8 -7 -10 -7 -7 -7 -8 -8 -9 -9 -9 -9 -9 -9 -9 -9 -10 -11 -10 -10 -12 -14 -13 -13 -13 -12
0 0 -1 -1 -1 -2 -2 -1 -1 -2 -1 -2 -2 -3 -3 -4 -4 -5 -5 -6 -7 -7 -7 -6 -8 -8 -6 -7 -7 -7 -8 -7 -8 -8 -8 -9 -9 -9 -9 -9 -10 -10 -10 -10 -10 -11 -11 -12 -13 -12 -12 -12 -13 -15
0 0 0 -0 -1 -2 -2 -1 -2 -2 -2 -3 -3 -4 -5 -4 -5 -5 -4 -5 -6 -6 -6 -7 -7 -7 -7 -8 -8 -8 -8 -8 -8 -9 -9 -9 -9 -10 -10 -10 -10 -10 -10 -10 -12 -13 -12 -11 -11 -11 -12 -12 -12 -13
1 0 -0 -0 -0 -0 -1 -1 -2 -2 -3 -4 -4 -4 -4 -4 -5 -5 -7 -6 -6 -6 -7 -8 -8 -8 -8 -8 -8 -9 -9 -9 -9 -9 -9 -10 -10 -10 -10 -10 -10 -10 -10 -10 -11 -11 -10 -10 -10 -11 -11 -12 -12 -13
Height
3032 3024 3018 3012 3006 3002 2997 2993 2991 2988 2987 2986 2985 2984 2983 2983 2982 2981 2981 2980 2980 2976 2975 2977 2977 2976 2976 2979 2976 2971 2981 2981 2988 2991 2992 2990 2989 2987 2992 2991 2993 2997 3004 3006 3014 3015 3014 3013 3021 3026 3025 3025 3026 3028
3027 3020 3014 3008 3003 2998 2994 2990 2987 2985 2983 2983 2981 2980 2979 2979 2978 2977 2977 2977 2975 2972 2972 2971 2968 2969 2970 2973 2976 2977 2977 2978 2983 2984 2984 2981 2981 2980 2984 2983 2986 2990 2991 3001 3008 3009 3007 3009 3014 3018 3021 3024 3024 3023
3025 3018 3012 3006 3001 2996 2991 2988 2985 2983 2982 2980 2978 2977 2976 2975 2974 2974 2973 2973 2972 2971 2967 2963 2964 2966 2964 2965 2969 2973 2978 2978 2980 2977 2977 2978 2977 2980 2976 2979 2978 2983 2989 2993 2999 2999 3000 3006 3010 3016 3020 3025 3025 3020
3023 3016 3010 3004 2999 2994 2991 2988 2985 2983 2980 2978 2976 2975 2973 2972 2971 2971 2970 2971 2971 2969 2965 2963 2965 2965 2964 2965 2965 2968 2972 2975 2974 2974 2974 2975 2977 2967 2973 2974 2975 2978 2980 2988 2987 2991 2994 2999 3004 3012 3017 3020 3019 3016
3022 3015 3009 3003 2998 2994 2990 2987 2985 2982 2980 2977 2974 2973 2972 2971 2970 2970 2969 2968 2967 2969 2964 2959 2960 2961 2960 2961 2964 2968 2971 2973 2973 2974 2972 2972 2971 2972 2972 2963 2967 2964 2972 2978 2981 2986 2992 2997 3003 3006 3011 3013 3013 3015
3021 3015 3009 3004 2999 2994 2990 2987 2984 2982 2979 2977 2975 2973 2972 2971 2970 2969 2967 2967 2967 2965 2963 2960 2960 2961 2962 2962 2964 2967 2970 2971 2972 2971 2971 2971 2970 2972 2969 2968 2970 2972 2971 2976 2978 2985 2989 2993 2996 3000 3006 3010 3014 3016
3021 3016 3010 3005 2999 2994 2990 2987 2984 2982 2979 2977 2975 2974 2972 2971 2970 2969 2969 2968 2965 2965 2963 2961 2958 2960 2963 2964 2965 2969 2970 2972 2971 2971 2970 2971 2972 2972 2971 2972 2976 2979 2981 2981 2984 2988 2991 2994 2999 3004 3005 3005 3010 3013
3022 3017 3011 3006 3001 2997 2992 2988 2985 2983 2980 2979 2977 2975 2973 2971 2970 2969 2969 2967 2965 2964 2963 2962 2959 2961 2962 2965 2966 2968 2971 2971 2970 2968 2971 2971 2970 2971 2971 2971 2973 2977 2977 2980 2982 2985 2990 2993 2996 2999 3001 3003 3007 3012
3025 3019 3014 3009 3005 3000 2996 2993 2989 2986 2983 2981 2979 2977 2975 2973 2972 2971 2969 2967 2965 2965 2963 2962 2959 2960 2961 2960 2964 2968 2970 2972 2970 2971 2970 2971 2970 2969 2971 2969 2970 2974 2976 2980 2982 2984 2987 2991 2993 2997 2992 3003 3008 3009
3028 3023 3018 3014 3009 3004 3001 2997 2993 2989 2986 2983 2981 2978 2977 2977 2975 2972 2970 2965 2966 2965 2964 2965 2963 2961 2958 2962 2966 2968 2969 2971 2971 2971 2969 2970 2972 2972 2973 2973 2974 2975 2977 2980 2983 2988 2989 2991 2995 2998 3000 3000 3004 3005
3032 3027 3023 3018 3014 3009 3005 3001 2998 2994 2992 2988 2985 2983 2981 2978 2976 2973 2971 2970 2968 2968 2966 2967 2965 2962 2962 2961 2964 2966 2960 2967 2967 2964 2971 2975 2977 2977 2976 2978 2979 2980 2981 2981 2983 2985 2992 2996 2999 2997 2999 3004 3006 3011
3036 3032 3027 3022 3017 3012 3007 3003 2999 2996 2993 2991 2988 2986 2984 2981 2979 2978 2975 2972 2969 2967 2968 2966 2967 2965 2967 2965 2965 2964 2967 2969 2970 2969 2973 2978 2980 2980 2981 2982 2983 2983 2985 2987 2988 2990 2995 2999 3004 3005 3006 3006 3008 3012
3040 3036 3031 3025 3020 3014 3008 3004 3001 2998 2995 2993 2990 2988 2987 2987 2984 2980 2975 2973 2975 2972 2970 2970 2969 2970 2969 2965 2960 2959 2967 2968 2971 2970 2975 2980 2982 2984 2986 2987 2989 2991 2993 2995 2997 2997 2997 3004 3007 3007 3007 3009 3011 3011
3043 3039 3034 3029 3024 3019 3015 3009 3004 3001 2999 2996 2995 2993 2992 2993 2992 2988 2985 2981 2978 2977 2975 2974 2972 2965 2964 2967 2964 2965 2971 2973 2976 2978 2984 2985 2986 2989 2991 2993 2996 2998 3001 3002 3002 3002 3002 3005 3006 3008 3007 3007 3007 3009
3045 3042 3038 3033 3028 3024 3020 3016 3011 3005 3004 3002 3001 3002 3001 2998 2993 2990 2990 2990 2987 2985 2982 2979 2978 2976 2975 2974 2975 2975 2977 2980 2984 2987 2987 2988 2991 2992 2994 2998 3002 3003 3004 3005 3006 3007 3008 3009 3009 3009 3009 3011 3011 3012
3048 3045 3041 3036 3032 3027 3023 3019 3016 3011 3009 3009 3009 3010 3008 3005 3003 2999 2996 2995 2991 2987 2986 2982 2984 2982 2981 2980 2981 2983 2985 2985 2988 2989 2991 2994 2997 2998 3000 3002 3005 3007 3007 3007 3008 3010 3011 3010 3010 3011 3011 3011 3010 3009
3049 3046 3043 3038 3034 3029 3024 3021 3018 3018 3018 3019 3017 3016 3012 3010 3007 3003 3000 2997 2995 2995 2991 2990 2989 2989 2990 2991 2991 2990 2990 2989 2991 2995 2996 2998 3001 3003 3004 3006 3007 3010 3012 3012 3011 3010 3010 3011 3012 3010 3012 3011 3012 3011
3049 3046 3043 3040 3036 3032 3028 3024 3024 3026 3025 3024 3022 3019 3015 3014 3010 3007 3005 3001 3000 3000 3000 2998 2999 2998 2998 2999 3000 2999 2998 2999 3000 3001 3004 3005 3007 3008 3009 3010 3010 3010 3011 3013 3014 3013 3015 3015 3015 3014 3015 3016 3012 3014
3049 3046 3043 3040 3037 3034 3031 3030 3027 3030 3031 3027 3025 3023 3021 3018 3016 3014 3011 3008 3006 3006 3006 3004 3005 3006 3007 3007 3007 3006 3006 3006 3008 3009 3010 3010 3011 3011 3012 3012 3013 3013 3013 3015 3016 3014 3015 3015 3016 3015 3015 3016 3016 3012
3048 3045 3042 3040 3038 3035 3034 3033 3031 3032 3032 3031 3030 3028 3026 3023 3022 3020 3019 3016 3014 3012 3011 3012 3014 3015 3014 3013 3013 3012 3012 3012 3013 3013 3013 3014 3013 3014 3014 3016 3017 3016 3016 3016 3015 3015 3016 3015 3016 3015 3014 3013 3013 3011
3050 3046 3044 3042 3039 3037 3036 3035 3036 3034 3033 3035 3034 3033 3031 3029 3024 3021 3020 3022 3019 3017 3017 3018 3018 3018 3018 3017 3017 3015 3014 3014 3014 3015 3015 3015 3016 3016 3017 3018 3018 3017 3017 3017 3016 3015 3014 3012 3011 3010 3009 3008 3007 3007
3057 3053 3051 3047 3043 3041 3040 3039 3038 3037 3036 3038 3036 3034 3033 3031 3030 3028 3027 3026 3025 3026 3026 3026 3025 3024 3023 3022 3022 3021 3020 3019 3018 3017 3017 3016 3017 3016 3015 3014 3014 3014 3013 3013 3013 3012 3010 3007 3007 3006 3004 3002 3000 2999
3065 3061 3056 3052 3051 3050 3051 3047 3045 3043 3043 3043 3042 3040 3040 3040 3039 3037 3034 3034 3034 3035 3034 3033 3031 3030 3029 3027 3026 3025 3023 3024 3023 3020 3019 3019 3018 3017 3017 3016 3015 3013 3013 3011 3010 3008 3005 3002 3000 2998 2997 2994 2993 2993
3069 3065 3062 3061 3060 3060 3058 3055 3053 3052 3052 3051 3050 3048 3047 3046 3045 3043 3043 3043 3042 3042 3041 3039 3039 3038 3035 3031 3029 3027 3025 3025 3026 3025 3021 3023 3022 3018 3015 3014 3013 3011 3006 3005 3004 3002 3000 2997 2994 2994 2991 2988 2987 2984
3074 3072 3070 3067 3066 3065 3063 3062 3061 3060 3059 3057 3055 3053 3052 3051 3049 3049 3049 3049 3050 3047 3046 3045 3042 3038 3036 3033 3031 3029 3026 3025 3023 3023 3018 3017 3016 3017 3017 3013 3005 3003 3000 2997 2996 2993 2991 2989 2987 2985 2983 2982 2978 2975
3076 3075 3074 3071 3070 3068 3067 3066 3065 3063 3062 3061 3059 3058 3057 3055 3054 3053 3052 3051 3050 3049 3048 3045 3043 3041 3037 3033 3030 3028 3025 3022 3020 3017 3014 3011 3009 3008 3006 3005 3003 2998 2993 2991 2989 2986 2983 2981 2979 2977 2976 2975 2971 2966
3079 3077 3076 3074 3072 3070 3069 3069 3067 3066 3064 3063 3061 3059 3057 3055 3054 3054 3052 3050 3048 3048 3046 3043 3040 3038 3036 3033 3028 3024 3022 3020 3017 3015 3013 3009 3005 3001 2999 2996 2991 2989 2986 2981 2980 2976 2973 2971 2968 2966 2963 2961 2959 2956
3082 3080 3078 3078 3075 3074 3072 3070 3069 3067 3066 3064 3061 3058 3057 3056 3054 3051 3049 3048 3046 3044 3042 3042 3039 3037 3035 3030 3027 3024 3020 3015 3012 3010 3010 3010 3002 2993 2991 2989 2983 2982 2979 2973 2972 2969 2966 2963 2960 2957 2954 2951 2948 2945
3084 3084 3082 3078 3077 3076 3073 3072 3071 3069 3065 3063 3059 3056 3055 3053 3051 3048 3048 3048 3047 3045 3042 3039 3037 3035 3032 3028 3024 3019 3015 3009 3006 3003 3001 2999 2995 2990 2984 2981 2978 2975 2972 2968 2962 2960 2959 2955 2952 2949 2946 2943 2940 2937
3087 3085 3082 3081 3079 3076 3076 3074 3071 3068 3064 3061 3058 3055 3053 3052 3052 3051 3049 3048 3046 3044 3043 3040 3037 3030 3025 3021 3017 3014 3009 3003 2999 2997 2994 2990 2986 2983 2979 2975 2972 2969 2965 2962 2959 2955 2950 2949 2946 2944 2939 2936 2932 2928
3089 3087 3084 3080 3080 3078 3075 3071 3070 3068 3065 3062 3059 3057 3055 3054 3053 3052 3051 3049 3048 3045 3039 3034 3030 3024 3020 3015 3011 3008 3004 2998 2994 2991 2988 2984 2981 2977 2974 2971 2968 2965 2961 2958 2955 2952 2948 2945 2942 2938 2934 2931 2927 2924
3090 3088 3086 3084 3081 3078 3073 3071 3070 3068 3065 3062 3060 3059 3058 3057 3056 3053 3050 3047 3043 3039 3033 3029 3024 3019 3015 3011 3006 3002 2998 2994 2989 2986 2983 2980 2977 2974 2971 2968 2965 2961 2958 2955 2952 2950 2946 2942 2939 2935 2932 2928 2924 2921
3091 3088 3086 3084 3083 3081 3078 3073 3071 3069 3067 3067 3064 3062 3062 3059 3056 3053 3048 3042 3038 3034 3029 3025 3020 3015 3010 3006 3002 2999 2994 2990 2987 2984 2980 2977 2974 2971 2968 2965 2962 2959 2956 2953 2950 2947 2944 2941 2938 2934 2931 2926 2922 2919
Wind_Speed
34 33 31 29 28 25 24 21 20 20 17 15 13 14 15 15 15 15 15 19 20 30 23 21 24 26 19 14 19 10 4 14 19 21 26 30 29 38 37 36 41 41 42 41 36 35 30 17 7 14 18 18 18 27
32 30 29 28 24 24 22 21 18 14 15 12 12 14 14 13 15 14 14 14 16 18 25 23 25 22 18 22 22 16 5 6 10 14 17 21 17 20 38 32 37 44 43 39 34 37 24 18 18 18 25 16 18 26
30 29 28 26 25 21 17 16 15 13 11 11 10 11 11 15 13 13 11 12 14 18 24 11 11 10 14 18 20 19 11 11 19 8 11 18 10 16 22 30 34 34 33 37 21 12 11 19 19 14 12 2 5 5
30 29 26 24 23 18 16 17 13 12 11 11 11 12 10 10 8 9 11 12 11 15 19 5 5 4 10 13 11 15 12 12 24 9 10 18 17 10 23 11 18 27 22 23 21 13 10 18 24 23 15 16 11 23
28 27 24 23 22 19 17 15 12 12 12 14 9 5 7 6 5 7 7 8 10 12 16 15 4 6 7 10 13 13 13 12 13 13 13 17 6 6 10 7 9 15 18 13 21 15 12 15 19 22 25 26 22 17
25 25 24 24 23 19 15 14 12 13 14 7 6 7 3 3 4 5 6 6 4 9 13 7 5 1 3 10 12 13 10 9 11 13 9 5 7 5 9 6 3 13 9 14 19 23 23 29 33 36 31 23 15 13
24 23 24 24 22 19 16 14 12 11 10 8 6 6 5 4 6 5 3 5 2 2 5 2 3 6 7 11 11 11 8 5 7 17 2 5 6 3 4 3 4 12 14 20 23 23 29 33 28 27 24 19 10 3
23 23 22 22 23 21 18 15 13 10 8 8 9 8 8 7 5 8 5 8 8 6 4 4 2 7 10 11 11 11 4 3 13 5 4 6 9 4 3 3 9 16 20 24 24 29 32 35 30 30 22 8 2 5
23 23 24 24 24 23 21 18 14 11 9 8 9 10 7 5 8 7 6 6 2 5 2 3 4 12 11 14 13 10 9 8 7 7 6 7 3 5 12 13 14 19 20 23 23 27 31 34 33 26 29 24 10 2
24 24 24 24 24 22 20 20 19 16 14 14 8 11 11 7 7 7 8 7 10 12 9 12 7 7 5 13 8 10 10 7 5 6 11 17 17 12 14 11 10 16 18 21 24 20 12 12 27 22 28 32 10 8
23 24 25 25 22 18 17 20 19 15 12 13 13 10 8 10 10 7 7 7 6 5 8 5 3 2 0 10 8 8 8 4 5 7 5 8 19 13 14 18 18 16 14 14 13 15 15 14 5 9 11 4 8 2
20 21 24 22 23 24 20 17 16 15 13 12 10 8 9 10 7 6 8 5 8 7 9 7 7 10 2 8 4 6 6 3 4 4 7 6 15 18 19 17 20 22 18 17 20 26 23 17 7 6 4 3 9 5
18 20 23 25 25 21 22 22 17 15 14 11 11 11 6 9 10 12 13 12 14 19 17 14 8 4 2 5 5 5 5 6 6 8 7 14 19 20 18 19 24 25 26 26 23 19 19 12 7 5 5 7 3 3
18 22 23 22 20 22 24 22 20 14 10 14 13 14 11 9 13 16 18 16 18 21 18 12 5 12 16 9 9 5 7 7 5 6 15 16 18 24 23 19 15 15 12 11 12 12 11 9 7 7 6 6 6 8
15 18 20 21 19 17 17 19 20 17 13 9 9 8 17 18 22 24 18 14 15 14 15 9 11 12 9 7 8 8 5 6 5 8 16 19 19 22 23 19 13 11 10 10 10 10 9 8 6 8 8 7 8 7
14 15 18 21 21 19 15 15 12 19 21 17 17 19 18 19 18 19 16 13 12 14 12 12 9 6 10 7 9 11 5 7 18 16 15 18 18 20 19 19 14 12 11 13 13 11 9 10 10 8 8 8 3 4
12 14 15 19 22 19 14 8 14 14 10 12 16 14 12 14 16 16 17 15 16 14 14 12 10 9 9 12 9 19 19 17 22 21 15 17 17 15 13 11 13 12 10 9 9 9 15 11 8 4 7 7 6 7
14 16 17 18 17 13 18 16 14 11 13 12 13 15 14 13 13 16 16 15 12 14 16 16 12 17 10 20 19 16 13 15 15 14 12 11 10 9 8 8 9 8 11 10 8 6 7 10 8 10 10 10 5 6
14 14 14 14 12 10 14 17 14 10 12 13 14 14 13 14 16 17 19 18 14 12 9 9 11 20 17 17 15 15 14 14 11 10 10 9 7 7 6 6 4 5 5 6 8 7 6 3 4 2 1 2 5 7
14 13 12 11 12 10 9 10 14 8 9 14 13 13 13 15 15 17 17 18 17 18 20 20 15 12 11 11 11 11 10 9 9 9 9 10 8 6 5 6 8 8 6 7 2 4 2 2 4 6 8 7 7 6
21 17 17 16 16 13 11 9 7 9 9 12 13 13 13 9 12 15 17 11 16 18 19 18 16 16 16 16 14 13 9 8 7 7 8 6 6 5 5 6 5 6 5 4 4 5 6 12 14 15 17 14 18 16
25 25 24 26 27 26 18 15 14 15 16 10 10 11 20 21 23 25 24 26 26 24 23 19 17 16 17 18 17 17 19 16 13 12 9 9 6 5 5 5 5 1 3 8 11 14 14 20 19 17 17 19 16 11
20 22 27 26 24 19 24 25 25 23 25 24 22 27 25 27 26 28 32 23 26 23 24 26 26 24 20 17 12 11 13 17 16 15 12 9 8 7 7 6 5 6 5 8 10 11 12 17 17 19 15 15 13 10
16 19 20 16 15 19 22 20 20 17 19 21 19 20 18 17 19 23 23 23 24 23 19 17 13 11 14 15 17 14 14 13 12 12 10 7 8 13 14 9 7 9 12 10 10 13 14 16 18 13 14 16 12 13
14 13 11 14 11 11 10 11 10 8 6 9 10 8 10 10 13 15 14 16 14 10 11 14 15 16 15 15 15 15 14 14 12 7 13 9 6 3 6 7 12 15 25 27 25 24 23 22 19 15 16 15 18 18
7 11 10 13 13 10 9 8 6 6 6 7 6 7 7 7 7 6 10 10 11 12 12 12 12 13 15 19 18 19 21 25 19 15 17 16 16 14 15 16 17 20 28 30 31 29 28 27 23 19 15 15 19 22
7 8 9 10 11 11 8 9 11 9 8 7 8 8 6 3 2 4 4 5 7 12 11 11 12 15 16 19 23 24 20 18 17 13 14 16 16 19 19 19 24 28 27 31 30 30 31 29 27 26 26 24 22 20
14 14 11 9 10 10 12 9 9 8 9 9 10 6 4 5 8 13 18 18 18 19 19 18 19 17 17 19 18 17 18 20 18 17 7 4 11 19 31 26 26 24 24 28 25 26 26 26 25 25 26 27 26 24
15 12 10 11 9 8 9 11 11 10 12 10 11 14 20 21 22 23 22 18 18 19 21 19 20 16 15 16 15 16 15 23 23 20 14 10 13 19 25 25 24 24 23 22 27 25 22 22 23 23 23 21 19 18
13 12 11 9 11 11 11 6 8 16 17 15 14 11 13 14 12 14 19 20 19 17 15 13 14 17 21 22 20 18 14 24 25 22 20 19 21 23 23 23 22 22 22 21 21 21 25 19 17 15 17 18 19 20
12 12 10 10 12 10 4 11 12 14 18 16 16 16 15 14 12 16 24 23 14 14 20 22 19 23 26 25 25 23 19 25 24 22 20 20 21 21 21 20 20 20 20 19 17 17 17 16 17 19 20 20 21 21
9 11 11 10 8 11 10 14 11 12 15 15 15 16 14 8 10 17 25 27 25 24 26 26 25 25 24 23 23 25 23 23 22 21 20 18 16 16 18 19 18 17 16 15 15 15 17 18 18 20 20 20 20 20
7 9 9 7 7 8 10 14 10 9 10 7 10 10 7 9 14 21 23 30 30 29 26 24 24 25 26 24 22 21 22 22 19 17 17 17 18 18 17 16 15 15 14 14 14 15 16 17 17 18 18 18 19 19
Wind_Direction
336 338 336 334 331 328 327 322 307 294 299 298 296 290 288 279 287 278 270 264 266 259 278 271 261 267 254 248 236 308 215 208 214 221 212 220 227 225 226 225 213 207 206 216 220 230 240 237 222 240 250 274 268 250
343 344 344 343 338 334 329 326 321 307 302 299 297 295 289 275 289 279 273 260 273 260 272 283 282 269 248 237 243 265 257 212 194 219 220 229 234 229 225 246 211 211 210 207 217 223 224 222 236 252 260 290 283 266
345 344 342 342 342 337 336 337 331 326 317 310 302 305 289 289 281 279 270 262 276 273 292 317 311 313 278 252 230 236 233 252 203 235 269 245 255 222 223 228 204 205 209 206 203 191 183 216 229 245 259 21 62 112
349 348 347 347 350 348 345 342 342 337 332 321 310 305 296 292 288 282 268 263 275 292 298 288 319 291 250 236 233 214 167 219 202 245 238 245 256 286 220 225 210 196 179 181 173 157 203 228 236 243 198 174 144 146
353 356 358 359 360 353 351 345 342 343 335 326 327 327 310 294 283 291 287 277 281 285 287 283 251 323 240 216 201 186 197 216 212 229 218 245 263 307 218 268 214 189 146 165 186 189 193 208 215 190 181 181 152 151
354 358 358 356 352 348 343 344 344 340 340 353 345 339 335 322 328 316 309 296 294 299 305 301 321 271 178 166 172 172 179 214 240 225 203 281 253 279 292 359 77 187 163 116 151 180 202 174 170 166 150 130 113 110
0 358 356 356 359 2 3 359 352 351 354 0 7 13 6 332 318 282 271 341 350 338 329 124 139 120 151 146 158 172 159 217 272 232 147 263 214 290 263 217 125 162 147 184 193 193 179 162 160 151 139 127 123 52
6 8 11 11 13 11 10 16 21 22 23 32 36 30 31 11 22 62 55 9 36 25 17 347 204 147 163 162 172 175 186 246 218 250 262 242 232 144 107 132 166 179 187 190 181 182 186 180 176 172 167 156 57 278
18 22 25 27 27 23 23 24 23 21 22 26 21 41 29 24 23 20 14 346 92 114 75 122 340 154 196 188 164 163 174 211 244 219 233 207 105 72 140 147 154 178 195 204 194 188 190 194 200 213 245 234 244 182
31 33 30 25 23 23 30 34 31 27 30 36 45 54 39 35 30 11 357 344 24 64 78 103 349 332 318 150 160 160 176 187 208 220 115 111 104 119 150 149 166 173 176 171 189 202 205 244 238 236 232 248 210 248
32 33 33 29 29 30 22 10 14 22 17 26 31 29 36 32 20 8 350 351 21 21 34 358 35 36 57 157 167 197 149 170 194 150 121 109 115 134 116 131 119 145 143 148 176 192 190 182 16 99 154 137 104 54
34 29 22 19 14 9 7 6 4 5 13 15 19 33 46 30 11 341 335 350 351 26 21 4 125 106 98 181 228 183 106 161 100 125 102 107 132 103 103 114 113 107 115 149 133 115 101 84 69 116 112 130 154 196
15 15 18 11 15 23 24 17 23 26 27 35 37 27 21 13 18 7 2 10 29 20 21 129 93 102 199 162 233 95 72 85 56 36 64 131 124 112 104 91 82 72 76 83 87 94 94 90 95 85 94 128 140 142
25 32 31 27 39 38 28 30 19 4 20 36 33 24 34 33 23 16 9 6 21 8 10 25 1 329 0 30 20 54 90 67 57 65 128 127 134 124 114 102 92 87 97 93 84 80 92 81 73 75 39 40 51 99
32 35 31 30 26 15 14 13 36 63 50 42 36 38 33 24 15 18 16 14 18 20 20 14 27 13 19 44 12 23 59 50 79 104 137 125 126 124 117 108 109 111 109 102 100 87 92 82 70 85 79 77 72 75
43 28 20 17 12 9 357 5 53 67 51 45 36 17 13 17 20 18 20 21 15 3 357 41 26 24 23 24 38 32 43 43 88 119 122 119 117 109 114 119 114 97 90 94 95 89 79 70 71 68 63 56 54 122
353 2 11 11 8 10 13 36 67 36 35 22 21 4 14 9 10 9 13 14 42 28 36 50 38 42 33 42 38 53 63 96 114 116 110 115 116 116 113 109 110 105 94 83 73 75 64 64 50 39 14 32 41 5
342 346 351 357 6 28 45 43 65 45 34 20 24 12 27 14 12 18 18 23 44 51 48 56 58 57 64 53 51 49 76 80 78 83 87 97 103 90 101 100 100 114 107 77 67 53 102 92 62 40 24 17 40 30
331 331 339 354 10 24 42 37 63 53 34 24 30 34 32 29 33 32 31 30 46 46 56 62 68 55 53 55 46 45 60 64 76 89 94 94 88 88 81 73 70 74 77 94 115 70 45 81 80 49 71 71 349 1
10 11 14 18 17 31 44 32 47 45 38 35 34 44 40 36 42 45 45 48 52 64 67 64 61 55 51 47 50 54 57 68 80 80 71 66 42 50 53 70 81 77 87 87 81 130 97 22 339 351 314 322 317 298
31 37 46 46 49 53 53 46 47 36 55 37 38 44 41 43 38 59 70 60 74 69 68 66 65 66 63 60 53 49 47 57 62 56 71 76 70 39 52 65 87 100 83 54 32 349 326 304 301 303 302 301 293 294
57 67 65 59 55 50 56 65 69 76 67 56 72 83 77 76 79 76 80 77 71 70 62 66 68 67 66 62 58 56 52 47 48 45 48 63 27 352 308 232 176 169 333 288 297 301 311 302 302 301 300 298 303 309
61 59 57 54 53 60 65 76 75 79 88 82 85 88 72 75 74 61 64 71 70 78 63 53 43 33 38 29 24 29 49 47 16 17 22 28 17 13 16 8 341 316 328 330 335 330 328 320 317 318 315 310 313 313
51 53 49 48 57 65 66 75 80 83 89 83 71 69 70 65 62 62 65 62 49 39 40 53 63 44 23 27 26 24 24 29 33 357 352 26 349 326 337 339 325 320 314 320 333 327 326 321 323 325 319 319 322 307
52 39 32 39 45 39 41 52 58 68 55 44 36 45 38 54 55 64 56 56 49 41 36 28 23 25 25 20 15 10 8 4 358 355 318 326 317 316 322 338 288 280 292 301 309 313 315 315 315 316 315 316 299 300
37 32 29 34 35 36 30 25 17 15 357 12 9 21 11 46 39 42 27 23 20 24 17 11 14 12 3 355 352 349 342 339 339 341 331 324 315 298 281 267 266 272 284 291 297 300 300 303 305 304 306 298 296 292
28 8 14 20 19 20 29 18 19 24 14 6 1 346 345 21 42 0 332 298 307 323 321 319 335 346 354 350 346 346 346 341 335 341 332 327 317 301 302 303 296 302 306 302 306 307 307 309 305 300 297 294 295 297
38 29 24 25 22 16 26 22 12 7 4 347 332 344 304 270 249 254 262 276 279 287 299 317 328 339 344 340 341 343 336 330 328 325 341 292 318 302 298 306 304 312 308 306 309 306 310 309 306 304 304 303 301 299
15 4 8 19 21 6 19 10 8 353 346 343 320 298 308 313 309 282 284 298 319 333 335 344 349 349 343 340 339 339 330 320 327 327 326 318 309 308 315 320 320 319 319 318 318 318 323 318 314 310 308 307 311 304
9 5 2 10 9 22 30 20 18 9 19 25 31 37 37 29 30 44 27 12 3 1 356 347 333 329 331 333 331 334 326 319 326 326 324 317 315 319 324 325 326 326 326 328 326 325 326 334 335 333 326 325 319 321
2 6 1 4 0 18 340 13 26 14 16 23 33 41 48 43 29 16 8 6 352 335 332 339 336 330 335 333 330 333 327 324 327 329 330 326 324 324 325 327 328 327 328 328 331 333 336 340 337 333 334 336 335 334
5 8 3 2 346 353 342 351 351 3 8 26 29 28 28 17 343 340 348 348 348 343 338 336 335 334 336 336 334 332 335 331 336 331 331 331 333 334 332 333 335 337 340 343 345 345 343 346 344 343 343 340 339 337
348 344 2 10 11 359 326 333 344 350 18 13 8 16 359 345 340 338 340 347 347 348 345 342 339 340 339 342 341 337 334 332 339 338 339 343 341 341 342 345 346 346 346 347 348 349 350 351 352 353 354 355 355 356